Location: Bercimuel
(41.3983°N, 3.5711°W)
Time: 07:48:26
(UTC+00:00)

Helios 1A - Pass Details

Date: 15 May 2026
Orbit: 540 x 559 km, 98.2° (Epoch: 6 June)

Event Time Altitude Azimuth Distance (km) Brightness Sun altitude
Rises 22:13:27 0° 20° (NNE) 2,709 6.9 -23.7°
Reaches altitude 10° 22:15:41 10° 27° (NNE) 1,810 5.8 -23.9°
Enters shadow 22:17:55 29° 50° (NE) 1,021 4.2 -24.2°
